Terminal Aerodrome Forecast
Issued by NWS Wilmington, OH

Current Version | Previous Version | Graphics & Text | Print | Product List | Glossary On
Versions: 1 2 3 4 5 6 7 8 9 10 11 12 13 14 15 16 17 18 19 20 21 22 23 24 25 26 27
000
FTUS41 KILN 200900 AAA
TAFCVG
TAF AMD
KCVG 200904Z 2009/2112 20006KT P6SM VCSH BKN100
     FM201500 22012G18KT P6SM BKN035 BKN060
      TEMPO 2023/2102 24008KT -SHRA OVC030
     FM210200 29006KT P6SM SCT030=

USA.gov is the U.S. government's official web portal to all federal, state and local government web resources and services.